Voltar ao catálogo

BLUEBON

AtivoCiênciaSSO
NORAD 62688·PAYLOAD·🇵🇱 Poland

Lançado Jan 14, 2025 de Vandenberg Space Force Base

Loading…

Próximas Passagens (próximas 24 horas)

TLE

AtualizadoSource: Space-Track

Época: Sep 13, 2026, 18:56 UTC

1 62688U 25009CH  26256.78908112  .00005926  00000-0  19474-3 0  9993
2 62688  97.3943 339.6699 0002346  60.3266 299.8209 15.31933826 92539

Acompanhe BLUEBON em tempo real com AllMySat

Download on the App Store